This is the latest recevied weather packets stored in our database for station/object 4S6DRJ-13. If no packets are shown the sender has not sent any weather packets the latest 10 day(s).
| Time | Temp. | Humidity | Pressure | Rain* | Wind** | Luminosity | Snow |
|---|---|---|---|---|---|---|---|
| 1788377459 | 27.78° C | 85% | 1009.8 hPa | 0 mm | 1.79 m/s, 183° | 0 W/m² | - |
| 1788377397 | 27.78° C | 85% | 1009.8 hPa | 0 mm | 1.34 m/s, 265° | 0 W/m² | - |
| 1788377336 | 27.78° C | 85% | 1009.8 hPa | 0 mm | 0 m/s | 0 W/m² | - |
| 1788377275 | 27.78° C | 85% | 1009.8 hPa | 0 mm | 0 m/s | 0 W/m² | - |
| 1788377214 | 27.78° C | 85% | 1009.9 hPa | 0 mm | 1.79 m/s, 247° | 0 W/m² | - |
| 1788377153 | 27.78° C | 86% | 1009.5 hPa | 0 mm | 1.34 m/s, 236° | 0 W/m² | - |
| 1788377092 | 27.78° C | 85% | 1009.8 hPa | 0 mm | 1.79 m/s, 229° | 0 W/m² | - |
| 1788377031 | 27.78° C | 86% | 1009.8 hPa | 0 mm | 0 m/s | 0 W/m² | - |
| 1788376970 | 27.78° C | 86% | 1009.8 hPa | 0 mm | 0.45 m/s, 225° | 0 W/m² | - |
| 1788376909 | 27.78° C | 86% | 1009.9 hPa | 0 mm | 0 m/s | 0 W/m² | - |
| 1788376850 | 27.78° C | 86% | 1010 hPa | 0 mm | 0.89 m/s, 238° | 0 W/m² | - |
| 1788376788 | 27.78° C | 86% | 1009.9 hPa | 0 mm | 0.45 m/s, 239° | 0 W/m² | - |
| 1788376727 | 27.78° C | 85% | 1009.8 hPa | 0 mm | 0.45 m/s, 213° | 0 W/m² | - |
| 1788376666 | 27.78° C | 85% | 1009.9 hPa | 0 mm | 0 m/s | 0 W/m² | - |
| 1788376605 | 27.78° C | 85% | 1009.9 hPa | 0 mm | 1.79 m/s, 251° | 0 W/m² | - |
| 1788376544 | 27.78° C | 85% | 1010 hPa | 0 mm | 0.89 m/s, 206° | 0 W/m² | - |
| 1788376483 | 27.78° C | 85% | 1009.8 hPa | 0 mm | 1.34 m/s, 239° | 0 W/m² | - |
| 1788376422 | 27.78° C | 85% | 1010 hPa | 0 mm | 0.89 m/s, 196° | 0 W/m² | - |
| 1788376361 | 27.78° C | 85% | 1010 hPa | 0 mm | 0.89 m/s, 139° | 0 W/m² | - |
| 1788376300 | 27.78° C | 85% | 1010.1 hPa | 0 mm | 1.79 m/s, 228° | 0 W/m² | - |
| 1788376239 | 27.78° C | 85% | 1010 hPa | 0 mm | 0 m/s | 0 W/m² | - |
| 1788376178 | 27.78° C | 85% | 1010 hPa | 0 mm | 0.89 m/s, 236° | 0 W/m² | - |
| 1788376117 | 27.78° C | 85% | 1010.1 hPa | 0 mm | 1.79 m/s, 227° | 0 W/m² | - |
| 1788376056 | 27.78° C | 85% | 1010.2 hPa | 0 mm | 0.89 m/s, 155° | 0 W/m² | - |
| 1788375995 | 27.78° C | 85% | 1010.1 hPa | 0 mm | 0.89 m/s, 239° | 0 W/m² | - |
* Rain latest hour (hover to see other rain measurements)
** Current wind speed in m/s (hover to see current wind gust speed)